• In Uzbekistan
  • List of Countries
  • For 7 days
  • Water Temperature
  • Satellite Maps
  • Weather Map
  • Weather Widgets
  • user-avatar
    Login

    Hourly Weather Prymiske (Radyans'ka Ukraina)

    Today, 18 December, Monday

    Time Temperature Precipitation Wind Pressure Humidity
    00:00 +5°C° 0 mm 7 mps 754 mmHg 80%
    01:00 +5°C° 0 mm 7 mps 753 mmHg 81%
    02:00 +5°C° 0 mm 6 mps 753 mmHg 83%
    03:00 +5°C° 0 mm 7 mps 753 mmHg 84%
    04:00 +5°C° 0 mm 7 mps 753 mmHg 85%
    05:00 +4°C° 0 mm 7 mps 752 mmHg 86%
    06:00 +5°C° 0.1 mm 7 mps 752 mmHg 85%
    07:00 +5°C° 0.1 mm 7 mps 752 mmHg 83%
    08:00 +5°C° 0.1 mm 8 mps 752 mmHg 81%
    09:00 +5°C° 0.4 mm 7 mps 752 mmHg 81%
    10:00 +6°C° 0.4 mm 7 mps 752 mmHg 80%
    11:00 +6°C° 0.4 mm 7 mps 752 mmHg 79%
    12:00 +6°C° 0 mm 7 mps 752 mmHg 81%
    13:00 +8°C° 0 mm 7 mps 752 mmHg 82%
    14:00 +8°C° 0 mm 7 mps 752 mmHg 83%
    15:00 +6°C° 0 mm 7 mps 753 mmHg 83%
    16:00 +6°C° 0 mm 7 mps 753 mmHg 82%
    17:00 +5°C° 0 mm 7 mps 754 mmHg 81%
    18:00 +4°C° 0 mm 6 mps 754 mmHg 80%
    19:00 +4°C° 0 mm 6 mps 755 mmHg 80%
    20:00 +3°C° 0 mm 5 mps 755 mmHg 79%
    21:00 +3°C° 0 mm 5 mps 755 mmHg 80%
    22:00 +4°C° 0 mm 4 mps 756 mmHg 80%
    23:00 +3°C° 0 mm 4 mps 756 mmHg 80%

    Tomorrow, 19 December, Tuesday

    Time Temperature Precipitation Wind Pressure Humidity
    00:00 +3°C° 0 mm 3 mps 756 mmHg 80%
    01:00 +3°C° 0 mm 3 mps 756 mmHg 81%
    02:00 +3°C° 0 mm 3 mps 756 mmHg 81%
    03:00 +2°C° 0 mm 3 mps 757 mmHg 81%
    04:00 +2°C° 0 mm 3 mps 757 mmHg 81%
    05:00 +2°C° 0 mm 3 mps 757 mmHg 81%
    06:00 +2°C° 0 mm 3 mps 757 mmHg 80%
    07:00 +1°C° 0 mm 3 mps 758 mmHg 80%
    08:00 +1°C° 0 mm 3 mps 758 mmHg 79%
    09:00 +1°C° 0 mm 3 mps 759 mmHg 75%
    10:00 +2°C° 0 mm 3 mps 759 mmHg 71%
    11:00 +2°C° 0 mm 3 mps 759 mmHg 67%
    12:00 +3°C° 0 mm 3 mps 759 mmHg 65%
    13:00 +3°C° 0 mm 3 mps 759 mmHg 63%
    14:00 +3°C° 0 mm 3 mps 759 mmHg 61%
    15:00 +3°C° 0 mm 3 mps 760 mmHg 64%
    16:00 +2°C° 0 mm 3 mps 760 mmHg 67%
    17:00 +2°C° 0 mm 3 mps 760 mmHg 70%
    18:00 +2°C° 0.1 mm 3 mps 760 mmHg 70%
    19:00 +2°C° 0.1 mm 3 mps 760 mmHg 71%
    20:00 +1°C° 0.1 mm 3 mps 761 mmHg 71%
    21:00 +1°C° 0.1 mm 3 mps 761 mmHg 72%
    22:00 +2°C° 0.1 mm 2 mps 761 mmHg 73%
    23:00 +2°C° 0.1 mm 2 mps 761 mmHg 74%

    Day after tomorrow, 20 December, Wednesday

    Time Temperature Precipitation Wind Pressure Humidity
    00:00 +2°C° 0 mm 2 mps 762 mmHg 76%
    01:00 +1°C° 0 mm 2 mps 762 mmHg 79%
    02:00 +1°C° 0 mm 2 mps 762 mmHg 81%
    03:00 -1°C° 0 mm 2 mps 762 mmHg 81%
    04:00 -1°C° 0 mm 2 mps 762 mmHg 82%
    05:00 -1°C° 0 mm 2 mps 762 mmHg 82%
    06:00 -1°C° 0 mm 2 mps 763 mmHg 81%
    07:00 -1°C° 0 mm 2 mps 763 mmHg 80%
    08:00 -1°C° 0 mm 2 mps 764 mmHg 79%
    09:00 +1°C° 0 mm 2 mps 764 mmHg 74%
    10:00 +1°C° 0 mm 2 mps 764 mmHg 68%
    11:00 +2°C° 0 mm 2 mps 764 mmHg 63%
    12:00 +2°C° 0 mm 2 mps 764 mmHg 61%
    13:00 +2°C° 0 mm 2 mps 764 mmHg 59%
    14:00 +4°C° 0 mm 1 mps 764 mmHg 57%
    15:00 +3°C° 0 mm 1 mps 764 mmHg 61%
    16:00 +2°C° 0 mm 1 mps 765 mmHg 64%
    17:00 +1°C° 0 mm 1 mps 765 mmHg 68%
    18:00 +1°C° 0 mm 1 mps 765 mmHg 69%
    19:00 +1°C° 0 mm 1 mps 765 mmHg 70%
    20:00 +1°C° 0 mm 1 mps 765 mmHg 70%
    21:00 +1°C° 0 mm 1 mps 765 mmHg 71%
    22:00 +1°C° 0 mm 1 mps 765 mmHg 71%
    23:00 +1°C° 0 mm 1 mps 765 mmHg 71%

    21 December, Thursday

    Time Temperature Precipitation Wind Pressure Humidity
    00:00 +1°C° 0 mm 1 mps 765 mmHg 71%
    01:00 -2°C° 0 mm 2 mps 765 mmHg 72%
    02:00 -2°C° 0 mm 2 mps 766 mmHg 72%
    03:00 -2°C° 0 mm 2 mps 766 mmHg 73%
    04:00 -2°C° 0 mm 2 mps 766 mmHg 73%
    05:00 -2°C° 0 mm 2 mps 766 mmHg 74%
    06:00 -2°C° 0 mm 3 mps 766 mmHg 74%
    07:00 -2°C° 0 mm 3 mps 766 mmHg 75%
    08:00 -2°C° 0 mm 3 mps 766 mmHg 76%
    09:00 -1°C° 0 mm 3 mps 766 mmHg 72%
    10:00 0°C° 0 mm 3 mps 766 mmHg 68%
    11:00 0°C° 0 mm 3 mps 766 mmHg 63%
    12:00 0°C° 0 mm 3 mps 766 mmHg 62%
    13:00 0°C° 0 mm 3 mps 766 mmHg 61%
    14:00 +1°C° 0 mm 3 mps 765 mmHg 59%
    15:00 0°C° 0 mm 3 mps 765 mmHg 62%
    16:00 -1°C° 0 mm 3 mps 765 mmHg 66%
    17:00 -2°C° 0 mm 3 mps 765 mmHg 69%
    18:00 -2°C° 0 mm 3 mps 765 mmHg 68%
    19:00 -2°C° 0 mm 3 mps 765 mmHg 68%
    20:00 -4°C° 0 mm 3 mps 765 mmHg 68%
    21:00 -4°C° 0 mm 3 mps 765 mmHg 67%
    22:00 -3°C° 0 mm 2 mps 764 mmHg 67%
    23:00 -3°C° 0 mm 2 mps 764 mmHg 66%

    22 December, Friday

    Time Temperature Precipitation Wind Pressure Humidity
    00:00 -3°C° 0 mm 2 mps 764 mmHg 66%
    01:00 -3°C° 0 mm 2 mps 763 mmHg 66%
    02:00 -3°C° 0 mm 2 mps 763 mmHg 65%
    03:00 -3°C° 0 mm 2 mps 763 mmHg 66%
    04:00 -1°C° 0 mm 1 mps 762 mmHg 67%
    05:00 -1°C° 0 mm 1 mps 762 mmHg 67%
    06:00 -1°C° 0 mm 1 mps 762 mmHg 67%
    07:00 -1°C° 0 mm 1 mps 761 mmHg 68%
    08:00 -1°C° 0 mm 1 mps 761 mmHg 68%
    09:00 0°C° 0 mm 1 mps 761 mmHg 65%
    10:00 0°C° 0 mm 1 mps 760 mmHg 62%
    11:00 +1°C° 0 mm 1 mps 760 mmHg 59%
    12:00 -1°C° 0 mm 2 mps 760 mmHg 59%
    13:00 +1°C° 0 mm 2 mps 759 mmHg 59%
    14:00 +1°C° 0 mm 2 mps 759 mmHg 59%
    15:00 -1°C° 0 mm 2 mps 759 mmHg 63%
    16:00 -2°C° 0 mm 2 mps 759 mmHg 68%
    17:00 -2°C° 0 mm 3 mps 759 mmHg 73%
    18:00 -2°C° 0 mm 3 mps 759 mmHg 74%
    19:00 -2°C° 0 mm 3 mps 758 mmHg 76%
    20:00 -3°C° 0 mm 4 mps 758 mmHg 77%
    21:00 -2°C° 0 mm 5 mps 758 mmHg 78%
    22:00 -2°C° 0 mm 5 mps 757 mmHg 79%
    23:00 -3°C° 0 mm 6 mps 757 mmHg 80%

    23 December, Saturday

    Time Temperature Precipitation Wind Pressure Humidity
    00:00 -2°C° 0.2 mm 6 mps 756 mmHg 82%
    01:00 -2°C° 0.2 mm 7 mps 755 mmHg 84%
    02:00 -2°C° 0.2 mm 7 mps 755 mmHg 86%
    03:00 -2°C° 0.4 mm 7 mps 754 mmHg 87%
    04:00 -2°C° 0.4 mm 7 mps 754 mmHg 88%
    05:00 -2°C° 0.4 mm 7 mps 753 mmHg 88%
    06:00 -2°C° 0.2 mm 7 mps 753 mmHg 89%
    07:00 -2°C° 0.2 mm 7 mps 753 mmHg 89%
    08:00 -2°C° 0.2 mm 6 mps 753 mmHg 89%
    09:00 -2°C° 0 mm 7 mps 753 mmHg 87%
    10:00 -2°C° 0 mm 7 mps 753 mmHg 84%
    11:00 -2°C° 0 mm 7 mps 753 mmHg 82%
    12:00 -2°C° 0 mm 7 mps 753 mmHg 81%
    13:00 -2°C° 0 mm 7 mps 753 mmHg 80%
    14:00 -1°C° 0 mm 7 mps 753 mmHg 80%
    15:00 -2°C° 0 mm 6 mps 754 mmHg 81%
    16:00 -2°C° 0 mm 6 mps 754 mmHg 82%
    17:00 -1°C° 0 mm 5 mps 754 mmHg 84%
    18:00 -2°C° 0 mm 5 mps 755 mmHg 84%
    19:00 -3°C° 0 mm 6 mps 755 mmHg 85%
    20:00 -4°C° 0 mm 6 mps 755 mmHg 85%
    21:00 -4°C° 0 mm 5 mps 756 mmHg 84%
    22:00 -4°C° 0 mm 5 mps 756 mmHg 84%
    23:00 -4°C° 0 mm 4 mps 756 mmHg 83%
    Show more